Location: Ffm
(50.0000°N, 8.5000°E)
Time: 09:21:25
(UTC+01:00)

Envisat - Pass Details

Date: 30 October 2020
Orbit: 764 x 766 km, 98.1° (Epoch: 03 December)

Event Time Altitude Azimuth Distance (km) Brightness Sun altitude
Rises 06:05:57 0° 18° (NNE) 3,244 6.4 -11.2°
Reaches altitude 10° 06:08:21 10° 24° (NNE) 2,313 5.7 -10.8°
Maximum altitude 06:13:18 49° 99° (E) 984 4.1 -10.1°
Drops below altitude 10° 06:18:11 10° 174° (S) 2,294 5.7 -9.3°
Sets 06:20:33 0° 180° (S) 3,216 6.4 -8.9°
